Location: Unspecified
(43.4680°N, 87.1740°E)
Time: 14:14:49
(UTC+00:00)

Cosmos 1356 Rocket - Pass Details

Date: 06 August 2021
Orbit: 543 x 597 km, 81.2° (Epoch: 19 September)

Event Time Altitude Azimuth Distance (km) Brightness Sun altitude
Exits shadow 20:23:45 15° 305° (NW) 1,506 5.5 -23.4°
Drops below altitude 10° 20:25:33 10° 331° (NNW) 1,819 6.3 -23.3°
Sets 20:28:27 0° 354° (N) 2,720 7.6 -23.0°
